Cresskill 5K — Results

Cresskill, New Jersey, United States

1st Place

Rio Avnery

Cresskill 5K and Fun Run

18:15

2nd Place

Gregory Nestler

Cresskill 5K and Fun Run

18:50

3rd Place

Dayne Mosconi

Cresskill 5K and Fun Run

19:09

# Bib Name Gender Gender Rank Age Group AG Rank Finish Time Pace
1 17 Rio Avnery Male M 10-99 18:15 5:52 /mi
2 162 Gregory Nestler Male M 10-99 18:50 6:04 /mi
3 311 Dayne Mosconi Male M 10-99 19:09 6:10 /mi
4 100 John Jamieson Male M 10-99 1 19:14 6:11 /mi
5 45 Ryan Chung Male M 10-99 2 19:15 6:12 /mi
6 122 Genadiy Kishinevskiy Male M 10-99 3 19:17 6:12 /mi
7 299 David Barkan Male M 10-99 4 19:33 6:17 /mi
8 313 Jackson Hermann Male M 10-99 5 20:43 6:40 /mi
9 312 Dennis Hermann Male M 10-99 6 20:43 6:40 /mi
10 96 Kai Inoue Male M 10-99 7 21:28 6:54 /mi
11 9 Keli Alvarez Female F 10-99 21:28 6:55 /mi
12 97 Kazuo Inoue Male M 10-99 8 21:44 7:00 /mi
13 203 Avihai Schieber Male M 10-99 9 21:47 7:01 /mi
14 324 Pinchas Farkas Male M 10-99 10 20:55 6:44 /mi
15 65 Ramond Garcia Male M 10-99 11 21:55 7:03 /mi
16 321 Carol Keegan Female F 10-99 21:55 7:03 /mi
17 117 Aidan Kim Male M 10-99 12 22:15 7:10 /mi
18 236 Christopher Yoon Male M 10-99 13 22:26 7:13 /mi
19 18 Saar Avnery Male M 10-99 14 22:48 7:20 /mi
20 256 Shachar Kenan Male M 10-99 15 22:46 7:20 /mi
21 238 Miao Zhang Male M 10-99 16 22:51 7:21 /mi
22 48 Franco Di Maio Male M 10-99 17 23:32 7:34 /mi
23 50 L. Di Maio Male 23:32 7:35 /mi
24 200 James Sarubbi Male M 10-99 18 23:29 7:34 /mi
25 170 David Park Male M 10-99 19 23:40 7:37 /mi
26 287 B. Kopczynski Male M 10-99 20 23:41 7:37 /mi
27 89 Estefany Herrera Female F 10-99 23:45 7:39 /mi
28 263 Erland Castillo Male M 10-99 21 23:43 7:38 /mi
29 315 Sandra Galindo Female F 10-99 1 23:44 7:38 /mi
30 243 masahiko fukano Male M 10-99 22 23:37 7:36 /mi
31 46 R. Chung Male M 10-99 23 24:22 7:50 /mi
32 82 G. Hahn Male M 10-99 24 24:28 7:53 /mi
33 188 Yonatan Reshef Male M 10-99 25 24:27 7:52 /mi
34 244 Yusuke ABE Male M 10-99 26 24:32 7:54 /mi
35 180 M. Pinzon Male M 10-99 27 24:55 8:01 /mi
36 135 Y. Lee Male M 10-99 28 25:04 8:04 /mi
37 314 M. Hermann Male 25:06 8:05 /mi
38 2 Michael Ajalat Male M 10-99 29 24:58 8:02 /mi
39 229 Taketo Uda Male M 10-99 30 25:24 8:10 /mi
40 250 Eli Joseph Totengco Male M 10-99 31 25:24 8:11 /mi
41 124 Michal Kislev Reshef Female F 10-99 2 25:39 8:15 /mi
42 90 Niva Herzig Female F 10-99 3 25:42 8:16 /mi
43 166 A. OSullivan Male M 10-99 32 25:49 8:19 /mi
44 94 G. Inbar Male M 10-99 33 26:08 8:25 /mi
45 11 Michael Ambartsumyan Male M 10-99 34 26:10 8:25 /mi
46 164 Victor Nunez Male M 10-99 35 25:24 8:10 /mi
47 185 Gabriela Salazar Female F 10-99 4 26:02 8:23 /mi
48 186 E. Reichenberg Male M 10-99 36 26:03 8:23 /mi
49 161 Y. Moallem Male M 10-99 37 26:26 8:31 /mi
50 172 Eden Perry Female F 10-99 5 25:55 8:21 /mi

Showing 1–50 of 274 results